Bar Harbor, ME

4:36 PM EST on December 08, 2019 (GMT -0500)
Hancock County-Bar Harbor

Weather History for KBHB - October, 2019

Change the Weather History Date:

Saturday, October 19, 2019

  Actual Average Record
Temperature  
Mean Temperature 47 °F -  
Max Temperature 55 °F 54 °F 78 °F (1963)
Min Temperature 39 °F 40 °F 26 °F (2015)
Degree Days  
Heating Degree Days 18    
Moisture  
Dew Point 36 °F    
Average Humidity 66    
Maximum Humidity 86    
Minimum Humidity 44    
Precipitation  
Precipitation 0.00 in - - ()
Sea Level Pressure  
Sea Level Pressure 29.91 in    
Wind  
Wind Speed 7 mph (NW)    
Max Wind Speed 13 mph    
Max Gust Speed 22 mph    
Visibility 10 miles    
Events      
Averages and records for this station are not official NWS values.
T = Trace of Precipitation, MM = Missing Value Source: NWS Daily Summary

Daily Weather History Graph

Daily Weather History Graph

Search for Another Location

Airport or City:

Astronomy

Oct. 19, 2019 Rise Set
Actual Time 6:53 AM EDT 5:42 PM EDT
Civil Twilight 6:23 AM EDT 6:12 PM EDT
Nautical Twilight 5:50 AM EDT 6:46 PM EDT
Astronomical Twilight 5:16 AM EDT 7:19 PM EDT
Moon 9:38 PM EDT (10/19) 12:31 PM EDT (10/19)
Length of Visible Light 11h 48m
Length of Day
10h 49m
Waning Gibbous, 70% of the Moon is Illuminated
Oct 19
Waning Gibbous
Oct 21
Last Quarter
Oct 27
New
Nov 4
First Quarter
Nov 12
Full

Hourly Weather History & Observations

Time (EDT) Temp. Windchill Dew Point Humidity Pressure Visibility Wind Dir Wind Speed Gust Speed Precip Events Conditions
12:56 AM 45.0 °F 41.8 °F 39.0 °F 80% 29.80 in 10.0 mi WNW 5.8 mph - N/A   Clear
1:56 AM 45.0 °F 40.6 °F 37.9 °F 76% 29.81 in 10.0 mi WNW 8.1 mph - N/A   Clear
2:56 AM 44.1 °F 40.8 °F 37.0 °F 76% 29.81 in 10.0 mi NW 5.8 mph - N/A   Clear
3:56 AM 45.0 °F 40.6 °F 37.9 °F 76% 29.82 in 10.0 mi West 8.1 mph - N/A   Clear
4:56 AM 44.1 °F 40.1 °F 37.0 °F 76% 29.84 in 10.0 mi WNW 6.9 mph - N/A   Clear
5:56 AM 43.0 °F 38.8 °F 37.0 °F 80% 29.86 in 10.0 mi WNW 6.9 mph - N/A   Clear
6:56 AM 42.1 °F 39.2 °F 36.0 °F 79% 29.87 in 10.0 mi WNW 4.6 mph - N/A   Clear
7:56 AM 45.0 °F 41.8 °F 36.0 °F 71% 29.89 in 10.0 mi NW 5.8 mph - N/A   Clear
8:56 AM 48.0 °F - 36.0 °F 63% 29.89 in 10.0 mi NNW 12.7 mph 17.3 mph N/A   Clear
9:56 AM 48.9 °F - 35.1 °F 59% 29.89 in 10.0 mi NW 12.7 mph 18.4 mph N/A   Clear
10:56 AM 51.1 °F - 36.0 °F 56% 29.90 in 10.0 mi NW 12.7 mph 21.9 mph N/A   Clear
11:56 AM 53.1 °F - 34.0 °F 48% 29.90 in 10.0 mi NW 12.7 mph 18.4 mph N/A   Clear
12:56 PM 55.0 °F - 35.1 °F 47% 29.89 in 10.0 mi WNW 12.7 mph 19.6 mph N/A   Clear
1:56 PM 55.9 °F - 35.1 °F 45% 29.89 in 10.0 mi NNW 8.1 mph 16.1 mph N/A   Clear
2:56 PM 55.9 °F - 35.1 °F 45% 29.90 in 10.0 mi NNW 10.4 mph 16.1 mph N/A   Clear
3:56 PM 55.9 °F - 34.0 °F 44% 29.91 in 10.0 mi NW 10.4 mph 17.3 mph N/A   Clear
4:56 PM 55.0 °F - 35.1 °F 47% 29.93 in 10.0 mi NW 4.6 mph - N/A   Clear
5:56 PM 51.1 °F - 36.0 °F 56% 29.95 in 10.0 mi Calm Calm - N/A   Clear
6:56 PM 45.0 °F 43.5 °F 37.0 °F 74% 29.97 in 10.0 mi WNW 3.5 mph - N/A   Clear
7:56 PM 46.9 °F - 36.0 °F 66% 29.99 in 10.0 mi WNW 4.6 mph - N/A   Clear
8:56 PM 45.0 °F 43.5 °F 37.0 °F 74% 30.02 in 10.0 mi West 3.5 mph - N/A   Clear
9:56 PM 45.0 °F 42.6 °F 36.0 °F 71% 30.04 in 10.0 mi WNW 4.6 mph - N/A   Clear
10:56 PM 39.0 °F 36.8 °F 35.1 °F 86% 30.05 in 10.0 mi North 3.5 mph - N/A   Clear
11:56 PM 39.0 °F - 35.1 °F 86% 30.05 in 10.0 mi Calm Calm - N/A   Clear